STARLINK-4536 (53783 NORAD) Tracking and Keplerian Element Data

This shows tracking and keplerian element data for the satellite.

Feedback or suggestion? Click here.




ElementValue
Catalog53783
NameSTARLINK-4536
Epoch Orbit1106
Epoch Day325.33334491
Epoch Year2022
RAAN280.6035
Inclination53.2171
Eccentricity0.0001687
Argument of Perigee50.5552
Mean Anonmoly191.6181
Mean Motion15.10392677
Decay Rate-0.01146419
L11 53783U 22111L 22325.33334491 -.01146419 00000+0 -74963-1 0 9994
L22 53783 53.2171 280.6035 0001687 50.5552 191.6181 15.10392677 11061



Live tracking and technical data element details for STARLINK-4536 (NORAD 53783). STARLINK-4536 can be tracked NOW for your location showing map with azimuth and elevation plus other details from your city location.







IsCatalogInMostPopularTable: catalog: 53783, numindb: -1

Insert: records affected: 1


GetName: 53783 STARLINK-4536

Hit Count: inserted at: Mon, 28 Nov 2022 05:06:53 GMT